Regional Weather Roundup
Issued by NWS

Home | Current Version | Previous Version | Text Only | Print | Product List | Glossary Off
Versions: 1 2 3 4 5 6 7 8 9 10 11 12 13 14 15 16 17 18 19 20 21 22 23 24 25 26 27 28 29 30 31 32 33 34 35 36 37 38 39 40 41 42 43 44 45 46 47 48 49 50

000
ASUS45 KCYS 292010
RWRWY

WYOMING REGIONAL WEATHER ROUNDUP
NATIONAL WEATHER SERVICE CHEYENNE WY
200 PM MDT WED JUL 29 2015

NOTE:  "FAIR" INDICATES FEW OR NO CLOUDS BELOW 12,000 FEET
WITH NO SIGNIFICANT WEATHER AND/OR OBSTRUCTIONS TO VISIBILITY.

WYZ001-292100-
YELLOWSTONE NATIONAL PARK

CITY           SKY/WX    TMP DP  RH WIND       PRES   REMARKS
LK YELLOWSTONE   N/A     60  37  42 CALM      30.48F
W YELLOWSTONE  NOT AVBL

$$
WYZ002>013-054>058-071-098>099-292100-
NORTHERN WYOMING

CITY           SKY/WX    TMP DP  RH WIND       PRES   REMARKS
JACKSON        FAIR      68  36  30 SW6       30.40F
CODY           FAIR      75  30  19 SE12      30.28F
GREYBULL       FAIR      79  27  14 VRB5      30.25F
WORLAND        FAIR      78  27  15 VRB6      30.26F
SHERIDAN       FAIR      78  34  20 SW5       30.25F
BUFFALO        FAIR      76  33  21 NE3       30.29F
GILLETTE       FAIR      77  31  18 N6        30.26F
HULETT         FAIR      75  36  23 SW7G22    30.28F
NEWCASTLE      FAIR      77  34  20 S8        30.28F

$$
WYZ014>020-022>026-101>103-292100-
CENTRAL WYOMING

CITY           SKY/WX    TMP DP  RH WIND       PRES   REMARKS
BIG PINEY      FAIR      71  25  17 VRB5      30.42F
PINEDALE       FAIR      70  19  14 W7        30.43S
DUBOIS         FAIR      72  19  14 N12G22    30.39S
LANDER         FAIR      76  32  20 NE12      30.30
RIVERTON       FAIR      73  26  17 NE7       30.33F
CASPER         FAIR      77  20  12 VRB6G18   30.31F
DOUGLAS        FAIR      79  36  21 SE9       30.30F

$$
WYZ021-027>030-104>119-292100-
SOUTHERN WYOMING

CITY           SKY/WX    TMP DP  RH WIND       PRES   REMARKS
EVANSTON       FAIR      75   9   8 VRB7      30.43S
KEMMERER       FAIR      70  21  16 SE6       30.45S
FORT BRIDGER   CLEAR     73  18  12 W5        30.45F
ROCK SPRINGS   FAIR      72  23  16 CALM      30.41F
DIXON          FAIR      79  19  10 W8        30.40F
RAWLINS        FAIR      77  17  10 MISG      30.39F
SARATOGA       FAIR      73  23  15 CALM      30.41F
LARAMIE        FAIR      75  29  18 VRB6      30.40F
CHEYENNE       FAIR      78  47  33 SE9       30.34F
TORRINGTON     FAIR      79  48  33 SW6       30.25F
PINE BLUFFS    FAIR      81  46  30 S14       30.31F

$$


USA.gov is the U.S. government's official web portal to all federal, state and local government web resources and services.